Location: St. Louis
(38.6270°N, 90.1994°W)
Time: 07:03:51
(UTC-06:00)

A-11 Canister half - Pass Details

Date: 09 December 2021
Orbit: 1524 x 1684 km, 47.3° (Epoch: 17 January)

Event Time Altitude Azimuth Distance (km) Brightness Sun altitude
Rises 05:25:10 0° 299° (WNW) 4,932 - -19.3°
Reaches altitude 10° 05:28:21 10° 300° (WNW) 3,932 - -18.7°
Exits shadow 05:31:20 23° 302° (WNW) 3,033 10.0 -18.1°
Maximum altitude 05:38:30 84° 29° (NNE) 1,652 9.1 -16.8°
Drops below altitude 10° 05:48:18 10° 118° (ESE) 3,808 12.4 -15.0°
Sets 05:51:20 0° 120° (ESE) 4,771 13.3 -14.4°
